Regional Weather Roundup
Issued by NWS

Current Version | Previous Version | Text Only | Print | Product List | Glossary On
Versions: 1 2 3 4 5 6 7 8 9 10 11 12 13 14 15 16 17 18 19 20 21 22 23 24 25 26 27 28 29 30 31 32 33 34 35 36 37 38 39 40 41 42 43 44 45 46 47 48 49 50
000
ASUS43 KBIS 050820
RWRND

NORTH DAKOTA REGIONAL WEATHER ROUNDUP
NATIONAL WEATHER SERVICE BISMARCK ND
200 AM CST THU MAR 05 2015

NOTE: "FAIR" INDICATES FEW OR NO CLOUDS BELOW 12,000 FEET WITH NO
SIGNIFICANT WEATHER AND/OR OBSTRUCTIONS TO VISIBILITY.


NDZ001>003-009>011-017-050900-
NORTHWEST NORTH DAKOTA

CITY           SKY/WX    TMP DP  RH WIND       PRES   REMARKS
WILLISTON      CLEAR      1  -9  62 S5        30.17F WCI  -9
MINOT          PTCLDY    -5 -15  62 S12       30.22F WCI -23
MINOT AFB      MOCLDY   -11 -17  75 S6        30.22F WCI -25
$$

NDZ018>021-031>035-040>046-050900-
SOUTHWEST NORTH DAKOTA

CITY           SKY/WX    TMP DP  RH WIND       PRES   REMARKS
BISMARCK       PTCLDY    -6 -12  75 CALM      30.32F
DICKINSON      PTCLDY     0  -7  72 S12       30.13F WCI -17
GARRISON         N/A    -11 -15  82 SE6       30.23F WCI -25
HETTINGER ARPT CLEAR      0  -9  65 S6        30.19F WCI -12
$$

NDZ004>008-012>016-024-026-027-054-050900-
NORTHEAST NORTH DAKOTA

CITY           SKY/WX    TMP DP  RH WIND       PRES   REMARKS
GRAND FORKS    CLEAR    -15 -20  78 SW7       30.40R WCI -31
GRND FRKS AFB  CLEAR     -9 -17  68 SW5       30.38S WCI -21
DEVILS LAKE    PTCLDY    -9 -18  64 SW6       30.30F WCI -23
$$

NDZ022-023-025-028>030-036>039-047>053-050900-
SOUTHEAST NORTH DAKOTA

CITY           SKY/WX    TMP DP  RH WIND       PRES   REMARKS
FARGO          CLEAR     -8 -15  71 SW7       30.43S WCI -23
JAMESTOWN      CLEAR     -9 -15  75 SW6       30.34S WCI -22
$$




USA.gov is the U.S. government's official web portal to all federal, state and local government web resources and services.